• In Deutschland
  • Länderverzeichnis
  • Für 7 Tage
  • Wassertemperatur
  • Satellitenkarten
  • Wetterkarte
  • Widgets
  • user-avatar
    Anmelden

    Stündliche Wetter Pinsk

    Heute, 26 Juli, Mittwoch

    Zeit Temperatur Niederschläge Wind Luftdruck Luftfeuchtigkeit
    00:00 +22°C° 0,2 mm 1 m/S 737 mmHg 89%
    01:00 +20°C° 0,2 mm 2 m/S 737 mmHg 91%
    02:00 +20°C° 0,2 mm 2 m/S 737 mmHg 93%
    03:00 +19°C° 0,5 mm 2 m/S 737 mmHg 94%
    04:00 +19°C° 0,5 mm 2 m/S 737 mmHg 95%
    05:00 +18°C° 0,5 mm 2 m/S 737 mmHg 95%
    06:00 +18°C° 0,5 mm 3 m/S 737 mmHg 94%
    07:00 +19°C° 0,5 mm 4 m/S 737 mmHg 92%
    08:00 +17°C° 0 mm 5 m/S 737 mmHg 93%
    09:00 +19°C° 0,1 mm 5 m/S 737 mmHg 90%
    10:00 +19°C° 0,1 mm 5 m/S 738 mmHg 87%
    11:00 +20°C° 0,1 mm 5 m/S 738 mmHg 83%
    12:00 +21°C° 0,1 mm 5 m/S 739 mmHg 78%
    13:00 +22°C° 0,1 mm 4 m/S 739 mmHg 72%
    14:00 +23°C° 0,1 mm 4 m/S 739 mmHg 67%
    15:00 +23°C° 0 mm 4 m/S 740 mmHg 65%
    16:00 +23°C° 0 mm 4 m/S 740 mmHg 64%
    17:00 +23°C° 0 mm 4 m/S 740 mmHg 62%
    18:00 +22°C° 0 mm 3 m/S 740 mmHg 68%
    19:00 +21°C° 0 mm 2 m/S 741 mmHg 73%
    20:00 +20°C° 0 mm 1 m/S 741 mmHg 79%
    21:00 +20°C° 0 mm 1 m/S 741 mmHg 81%
    22:00 +19°C° 0 mm 1 m/S 741 mmHg 83%
    23:00 +18°C° 0 mm 1 m/S 742 mmHg 85%

    Morgen, 27 Juli, Donnerstag

    Zeit Temperatur Niederschläge Wind Luftdruck Luftfeuchtigkeit
    00:00 +18°C° 0 mm 1 m/S 742 mmHg 86%
    01:00 +16°C° 0 mm 1 m/S 742 mmHg 87%
    02:00 +16°C° 0 mm 2 m/S 742 mmHg 88%
    03:00 +16°C° 0 mm 2 m/S 742 mmHg 89%
    04:00 +15°C° 0 mm 2 m/S 742 mmHg 90%
    05:00 +15°C° 0 mm 2 m/S 742 mmHg 91%
    06:00 +17°C° 0 mm 2 m/S 742 mmHg 85%
    07:00 +19°C° 0 mm 2 m/S 743 mmHg 79%
    08:00 +20°C° 0 mm 2 m/S 743 mmHg 73%
    09:00 +23°C° 0 mm 2 m/S 743 mmHg 66%
    10:00 +24°C° 0 mm 2 m/S 743 mmHg 59%
    11:00 +26°C° 0 mm 3 m/S 743 mmHg 53%
    12:00 +26°C° 0 mm 3 m/S 743 mmHg 50%
    13:00 +27°C° 0 mm 3 m/S 743 mmHg 48%
    14:00 +27°C° 0 mm 3 m/S 743 mmHg 45%
    15:00 +27°C° 0 mm 2 m/S 743 mmHg 47%
    16:00 +27°C° 0 mm 2 m/S 743 mmHg 49%
    17:00 +27°C° 0 mm 2 m/S 743 mmHg 51%
    18:00 +25°C° 0 mm 2 m/S 743 mmHg 57%
    19:00 +23°C° 0 mm 2 m/S 743 mmHg 62%
    20:00 +22°C° 0 mm 1 m/S 743 mmHg 68%
    21:00 +21°C° 0 mm 1 m/S 743 mmHg 71%
    22:00 +20°C° 0 mm 1 m/S 743 mmHg 73%
    23:00 +19°C° 0 mm 1 m/S 743 mmHg 76%

    übermorgen, 28 Juli, Freitag

    Zeit Temperatur Niederschläge Wind Luftdruck Luftfeuchtigkeit
    00:00 +19°C° 0 mm 1 m/S 743 mmHg 79%
    01:00 +18°C° 0 mm 1 m/S 743 mmHg 81%
    02:00 +18°C° 0 mm 1 m/S 743 mmHg 84%
    03:00 +18°C° 0 mm 1 m/S 743 mmHg 85%
    04:00 +16°C° 0 mm 1 m/S 743 mmHg 87%
    05:00 +16°C° 0 mm 2 m/S 743 mmHg 89%
    06:00 +17°C° 0 mm 2 m/S 743 mmHg 85%
    07:00 +18°C° 0 mm 2 m/S 743 mmHg 81%
    08:00 +20°C° 0 mm 2 m/S 743 mmHg 77%
    09:00 +21°C° 0 mm 3 m/S 744 mmHg 74%
    10:00 +22°C° 0 mm 3 m/S 744 mmHg 70%
    11:00 +23°C° 0 mm 4 m/S 744 mmHg 67%
    12:00 +22°C° 0,1 mm 4 m/S 744 mmHg 66%
    13:00 +22°C° 0,1 mm 5 m/S 744 mmHg 66%
    14:00 +22°C° 0,1 mm 5 m/S 744 mmHg 66%
    15:00 +22°C° 0 mm 5 m/S 744 mmHg 66%
    16:00 +22°C° 0 mm 5 m/S 744 mmHg 66%
    17:00 +22°C° 0 mm 5 m/S 744 mmHg 67%
    18:00 +21°C° 0 mm 4 m/S 744 mmHg 72%
    19:00 +19°C° 0 mm 3 m/S 744 mmHg 78%
    20:00 +18°C° 0 mm 2 m/S 745 mmHg 84%
    21:00 +18°C° 0 mm 2 m/S 745 mmHg 86%
    22:00 +17°C° 0 mm 2 m/S 745 mmHg 89%
    23:00 +16°C° 0 mm 2 m/S 745 mmHg 92%

    29 Juli, Samstag

    Zeit Temperatur Niederschläge Wind Luftdruck Luftfeuchtigkeit
    00:00 +16°C° 0 mm 2 m/S 746 mmHg 93%
    01:00 +16°C° 0 mm 2 m/S 746 mmHg 94%
    02:00 +15°C° 0 mm 2 m/S 746 mmHg 94%
    03:00 +15°C° 0 mm 2 m/S 746 mmHg 95%
    04:00 +15°C° 0 mm 2 m/S 746 mmHg 95%
    05:00 +15°C° 0 mm 2 m/S 747 mmHg 95%
    06:00 +16°C° 0 mm 2 m/S 747 mmHg 89%
    07:00 +18°C° 0 mm 2 m/S 747 mmHg 83%
    08:00 +19°C° 0 mm 2 m/S 748 mmHg 77%
    09:00 +21°C° 0,1 mm 2 m/S 748 mmHg 71%
    10:00 +22°C° 0,1 mm 3 m/S 748 mmHg 65%
    11:00 +24°C° 0,1 mm 3 m/S 749 mmHg 59%
    12:00 +25°C° 0,1 mm 4 m/S 749 mmHg 57%
    13:00 +25°C° 0,1 mm 4 m/S 749 mmHg 55%
    14:00 +26°C° 0,1 mm 5 m/S 749 mmHg 54%
    15:00 +26°C° 0 mm 5 m/S 749 mmHg 55%
    16:00 +25°C° 0 mm 5 m/S 749 mmHg 56%
    17:00 +25°C° 0 mm 5 m/S 749 mmHg 57%
    18:00 +23°C° 0 mm 4 m/S 749 mmHg 63%
    19:00 +21°C° 0 mm 3 m/S 750 mmHg 69%
    20:00 +19°C° 0 mm 2 m/S 750 mmHg 75%
    21:00 +19°C° 0 mm 2 m/S 750 mmHg 78%
    22:00 +18°C° 0 mm 2 m/S 751 mmHg 80%
    23:00 +17°C° 0 mm 2 m/S 751 mmHg 83%

    30 Juli, Sonntag

    Zeit Temperatur Niederschläge Wind Luftdruck Luftfeuchtigkeit
    00:00 +17°C° 0 mm 2 m/S 751 mmHg 84%
    01:00 +16°C° 0 mm 2 m/S 751 mmHg 86%
    02:00 +15°C° 0 mm 1 m/S 751 mmHg 88%
    03:00 +15°C° 0 mm 1 m/S 751 mmHg 88%
    04:00 +15°C° 0 mm 1 m/S 752 mmHg 88%
    05:00 +15°C° 0 mm 2 m/S 752 mmHg 88%
    06:00 +17°C° 0 mm 2 m/S 752 mmHg 81%
    07:00 +19°C° 0 mm 2 m/S 752 mmHg 74%
    08:00 +21°C° 0 mm 2 m/S 752 mmHg 67%
    09:00 +24°C° 0 mm 2 m/S 752 mmHg 62%
    10:00 +25°C° 0 mm 3 m/S 752 mmHg 57%
    11:00 +27°C° 0 mm 3 m/S 752 mmHg 52%
    12:00 +28°C° 0 mm 3 m/S 752 mmHg 50%
    13:00 +29°C° 0 mm 3 m/S 752 mmHg 49%
    14:00 +30°C° 0 mm 3 m/S 751 mmHg 47%
    15:00 +30°C° 0 mm 3 m/S 751 mmHg 50%
    16:00 +30°C° 0 mm 3 m/S 751 mmHg 52%
    17:00 +29°C° 0 mm 3 m/S 751 mmHg 54%
    18:00 +28°C° 0 mm 2 m/S 751 mmHg 59%
    19:00 +26°C° 0 mm 2 m/S 750 mmHg 64%
    20:00 +25°C° 0 mm 1 m/S 750 mmHg 69%
    21:00 +24°C° 0,2 mm 1 m/S 750 mmHg 71%
    22:00 +24°C° 0,2 mm 2 m/S 750 mmHg 73%
    23:00 +23°C° 0,2 mm 2 m/S 751 mmHg 75%

    31 Juli, Montag

    Zeit Temperatur Niederschläge Wind Luftdruck Luftfeuchtigkeit
    00:00 +21°C° 0,7 mm 2 m/S 750 mmHg 79%
    01:00 +21°C° 0,7 mm 2 m/S 750 mmHg 82%
    02:00 +22°C° 0,7 mm 1 m/S 750 mmHg 85%
    03:00 +20°C° 0,4 mm 2 m/S 750 mmHg 87%
    04:00 +20°C° 0,4 mm 2 m/S 750 mmHg 88%
    05:00 +20°C° 0,4 mm 3 m/S 750 mmHg 90%
    06:00 +21°C° 0,1 mm 3 m/S 750 mmHg 86%
    07:00 +22°C° 0,1 mm 3 m/S 750 mmHg 81%
    08:00 +23°C° 0,1 mm 4 m/S 750 mmHg 77%
    09:00 +26°C° 0 mm 3 m/S 750 mmHg 71%
    10:00 +28°C° 0 mm 3 m/S 750 mmHg 64%
    11:00 +30°C° 0 mm 3 m/S 751 mmHg 58%
    12:00 +31°C° 0 mm 3 m/S 751 mmHg 56%
    13:00 +33°C° 0 mm 3 m/S 751 mmHg 53%
    14:00 +33°C° 0 mm 4 m/S 751 mmHg 51%
    15:00 +33°C° 0 mm 4 m/S 751 mmHg 52%
    16:00 +33°C° 0 mm 3 m/S 751 mmHg 53%
    17:00 +33°C° 0 mm 3 m/S 751 mmHg 54%
    18:00 +30°C° 0 mm 3 m/S 751 mmHg 61%
    19:00 +28°C° 0 mm 2 m/S 752 mmHg 68%
    20:00 +27°C° 0 mm 2 m/S 752 mmHg 74%
    21:00 +26°C° 0 mm 1 m/S 752 mmHg 77%
    22:00 +25°C° 0 mm 1 m/S 753 mmHg 79%
    23:00 +24°C° 0 mm 1 m/S 753 mmHg 81%
    Mehr zeigen